| time (UTC) | temp F | wind direction | speed knots | gust knots | rain 1hr in | rain 24hr in | rain mn in | humidity % | barometer mb |
| 20260503194010 | 59 | 1 | 9.6 | 21.7 | 0.00 | 0.00 | 0.00 | 35 | 1009.0 |
| 20260503194007 | 60 | 360 | 9.6 | 20.9 | 0.00 | 0.00 | 0.00 | 51 | 1339.4 |
| 20260503193511 | 60 | 1 | 7.8 | 21.7 | 0.00 | 0.00 | 0.00 | 34 | 1009.0 |
| 20260503193506 | 60 | 360 | 7.8 | 21.7 | 0.00 | 0.00 | 0.00 | 50 | 1339.2 |
| 20260503193011 | 60 | 1 | 6.1 | 16.5 | 0.00 | 0.00 | 0.00 | 35 | 1009.0 |
| 20260503193006 | 60 | 360 | 5.2 | 16.5 | 0.00 | 0.00 | 0.00 | 29 | 1339.2 |
| 20260503192511 | 60 | 1 | 6.1 | 16.5 | 0.00 | 0.00 | 0.00 | 35 | 1009.1 |
| 20260503192507 | 60 | 360 | 6.1 | 16.5 | 0.00 | 0.00 | 0.00 | 51 | 1339.3 |
| 20260503192027 | 60 | 360 | 7.0 | 17.4 | 0.00 | 0.00 | 0.00 | 50 | 1339.5 |
| 20260503192011 | 59 | 1 | 7.0 | 17.4 | 0.00 | 0.00 | 0.00 | 34 | 1009.1 |
| 20260503191527 | 60 | 360 | 6.1 | 20.0 | 0.00 | 0.00 | 0.00 | 50 | 1339.5 |
| 20260503191511 | 59 | 1 | 6.1 | 17.4 | 0.00 | 0.00 | 0.00 | 35 | 1009.2 |
| 20260503191028 | 59 | 360 | 5.2 | 16.5 | 0.00 | 0.00 | 0.00 | 52 | 1339.9 |
| 20260503191011 | 59 | 1 | 6.1 | 16.5 | 0.00 | 0.00 | 0.00 | 38 | 1009.3 |
| 20260503190528 | 59 | 360 | 6.1 | 14.8 | 0.00 | 0.00 | 0.00 | 53 | 1339.8 |
| 20260503190511 | 59 | 1 | 6.1 | 17.4 | 0.00 | 0.00 | 0.00 | 38 | 1009.3 |
| 20260503190028 | 59 | 360 | 7.0 | 17.4 | 0.00 | 0.00 | 0.00 | 55 | 1340.0 |
| 20260503185511 | 59 | 1 | 7.8 | 20.9 | 0.00 | 0.00 | 0.00 | 39 | 1009.6 |
| 20260503185506 | 59 | 360 | 7.8 | 23.5 | 0.00 | 0.00 | 0.00 | 33 | 1340.3 |
| 20260503185011 | 59 | 1 | 7.0 | 20.0 | 0.00 | 0.00 | 0.00 | 39 | 1009.6 |
| 20260503185006 | 59 | 360 | 7.8 | 20.0 | 0.00 | 0.00 | 0.00 | 55 | 1340.4 |
| 20260503184511 | 58 | 1 | 7.8 | 20.0 | 0.00 | 0.00 | 0.00 | 41 | 1009.7 |
| 20260503184506 | 58 | 360 | 8.7 | 16.5 | 0.00 | 0.00 | 0.00 | 56 | 1340.4 |
| 20260503184011 | 58 | 1 | 7.8 | 21.7 | 0.00 | 0.00 | 0.00 | 41 | 1009.7 |
| 20260503184007 | 58 | 360 | 7.8 | 24.3 | 0.00 | 0.00 | 0.00 | 56 | 1340.4 |
| 20260503183511 | 59 | 1 | 7.0 | 21.7 | 0.00 | 0.00 | 0.00 | 41 | 1009.9 |
| 20260503183506 | 59 | 360 | 7.0 | 21.7 | 0.00 | 0.00 | 0.00 | 56 | 1340.6 |
| 20260503183006 | 59 | 360 | 7.0 | 21.7 | 0.00 | 0.00 | 0.00 | 56 | 1340.7 |
| 20260503182511 | 59 | 1 | 6.1 | 18.2 | 0.00 | 0.00 | 0.00 | 41 | 1009.8 |
| 20260503182507 | 59 | 360 | 6.1 | 13.9 | 0.00 | 0.00 | 0.00 | 56 | 1340.6 |
| 20260503182011 | 59 | 1 | 7.0 | 21.7 | 0.00 | 0.00 | 0.00 | 39 | 1009.8 |
| 20260503182006 | 59 | 360 | 7.0 | 18.2 | 0.00 | 0.00 | 0.00 | 55 | 1340.5 |
| 20260503181510 | 60 | 1 | 6.1 | 21.7 | 0.00 | 0.00 | 0.00 | 38 | 1009.9 |
| 20260503181506 | 60 | 360 | 6.1 | 23.5 | 0.00 | 0.00 | 0.00 | 53 | 1340.5 |
| 20260503181006 | 60 | 360 | 4.3 | 13.9 | 0.00 | 0.00 | 0.00 | 51 | 1340.4 |
| 20260503180510 | 60 | 1 | 6.1 | 14.8 | 0.00 | 0.00 | 0.00 | 37 | 1010.0 |
| 20260503180506 | 60 | 360 | 5.2 | 13.0 | 0.00 | 0.00 | 0.00 | 52 | 1340.5 |
| 20260503180011 | 60 | 1 | 6.1 | 14.8 | 0.00 | 0.00 | 0.00 | 35 | 1009.8 |
| 20260503180006 | 60 | 360 | 6.1 | 16.5 | 0.00 | 0.00 | 0.00 | 51 | 1340.6 |
| 20260503175511 | 61 | 1 | 6.1 | 14.8 | 0.00 | 0.00 | 0.00 | 35 | 1009.8 |
| 20260503175506 | 61 | 360 | 6.1 | 14.8 | 0.00 | 0.00 | 0.00 | 51 | 1340.4 |
| 20260503175011 | 61 | 1 | 6.1 | 16.5 | 0.00 | 0.00 | 0.00 | 34 | 1009.8 |
| 20260503175006 | 61 | 360 | 6.1 | 14.8 | 0.00 | 0.00 | 0.00 | 49 | 1340.5 |
| 20260503174510 | 62 | 352 | 7.0 | 17.4 | 0.00 | 0.00 | 0.00 | 34 | 1009.9 |
| 20260503174506 | 62 | 354 | 7.0 | 16.5 | 0.00 | 0.00 | 0.00 | 50 | 1340.7 |
| 20260503174027 | 62 | 330 | 7.0 | 16.5 | 0.00 | 0.00 | 0.00 | 49 | 1340.4 |
| 20260503174011 | 62 | 328 | 6.1 | 17.4 | 0.00 | 0.00 | 0.00 | 33 | 1009.9 |
| 20260503173528 | 63 | 292 | 5.2 | 11.3 | 0.00 | 0.00 | 0.00 | 48 | 1340.5 |
| 20260503173511 | 63 | 292 | 6.1 | 14.8 | 0.00 | 0.00 | 0.00 | 31 | 1009.8 |
| 20260503173027 | 63 | 289 | 5.2 | 14.8 | 0.00 | 0.00 | 0.00 | 28 | 1340.5 |
| 20260503173012 | 63 | 288 | 6.1 | 14.8 | 0.00 | 0.00 | 0.00 | 33 | 1009.9 |
| 20260503172511 | 63 | 282 | 7.0 | 17.4 | 0.00 | 0.00 | 0.00 | 37 | 1009.9 |
| 20260503172506 | 63 | 283 | 7.0 | 13.0 | 0.00 | 0.00 | 0.00 | 30 | 1340.4 |
| 20260503172011 | 63 | 276 | 7.0 | 17.4 | 0.00 | 0.00 | 0.00 | 33 | 1010.0 |
| 20260503172007 | 63 | 279 | 7.8 | 20.0 | 0.00 | 0.00 | 0.00 | 27 | 1340.8 |
| 20260503171510 | 63 | 290 | 4.3 | 13.9 | 0.00 | 0.00 | 0.00 | 35 | 1010.0 |
| 20260503171506 | 63 | 290 | 5.2 | 13.0 | 0.00 | 0.00 | 0.00 | 51 | 1340.7 |
| 20260503171011 | 63 | 293 | 4.3 | 17.4 | 0.00 | 0.00 | 0.00 | 37 | 1010.2 |
| 20260503171006 | 63 | 292 | 5.2 | 11.3 | 0.00 | 0.00 | 0.00 | 52 | 1340.9 |
| 20260503170510 | 63 | 280 | 6.1 | 17.4 | 0.00 | 0.00 | 0.00 | 33 | 1010.3 |
| 20260503170506 | 63 | 284 | 5.2 | 17.4 | 0.00 | 0.00 | 0.00 | 49 | 1341.0 |
| 20260503151006 | 56 | 350 | 4.3 | 13.9 | 0.00 | 0.00 | 0.00 | 59 | 1342.8 |
| 20260503150510 | 56 | 350 | 3.5 | 13.0 | 0.00 | 0.00 | 0.00 | 45 | 1011.6 |
| 20260503150506 | 56 | 350 | 3.5 | 13.0 | 0.00 | 0.00 | 0.00 | 59 | 1342.8 |
| 20260503131006 | 46 | 279 | 2.6 | 7.0 | 0.00 | 0.00 | 0.00 | 70 | 1344.2 |
| 20260503130528 | 45 | 302 | 1.7 | 6.1 | 0.00 | 0.00 | 0.00 | 72 | 1344.2 |
| 20260503130510 | 45 | 300 | 2.6 | 10.4 | 0.00 | 0.00 | 0.00 | 62 | 1012.8 |
| 20260503110511 | 32 | 0 | 0.0 | 0.0 | 0.00 | 0.00 | 0.00 | 73 | 1013.2 |
| 20260503110506 | 32 | 0 | 0.0 | 0.0 | 0.00 | 0.00 | 0.00 | 82 | 1344.9 |
| 20260503090511 | 27 | 0 | 0.0 | 2.6 | 0.00 | 0.00 | 0.00 | 75 | 1013.4 |
| 20260503090506 | 27 | 9 | 0.0 | 2.6 | 0.00 | 0.00 | 0.00 | 84 | 1344.9 |
| 20260503081510 | 27 | 0 | 0.0 | 0.0 | 0.00 | 0.00 | 0.00 | 75 | 1013.4 |
| 20260503081506 | 27 | 0 | 0.0 | 0.0 | 0.00 | 0.00 | 0.00 | 84 | 1345.1 |
| 20260503081010 | 27 | 0 | 0.0 | 0.0 | 0.00 | 0.00 | 0.00 | 75 | 1013.4 |
| 20260503081006 | 27 | 0 | 0.0 | 0.0 | 0.00 | 0.00 | 0.00 | 84 | 1345.1 |
| 20260503080506 | 27 | 0 | 0.0 | 0.0 | 0.00 | 0.00 | 0.00 | 84 | 1345.1 |
| 20260503072527 | 27 | 0 | 0.0 | 0.0 | 0.00 | 0.00 | 0.00 | 84 | 1345.0 |
| 20260503072512 | 27 | 0 | 0.0 | 0.0 | 0.00 | 0.00 | 0.00 | 75 | 1013.3 |
| 20260503072006 | 28 | 0 | 0.0 | 0.0 | 0.00 | 0.00 | 0.00 | 84 | 1345.0 |
| 20260503071527 | 28 | 0 | 0.0 | 0.0 | 0.00 | 0.00 | 0.00 | 84 | 1344.9 |
| 20260503071511 | 28 | 0 | 0.0 | 0.0 | 0.00 | 0.00 | 0.00 | 77 | 1013.3 |
| 20260503071027 | 28 | 0 | 0.0 | 0.0 | 0.00 | 0.00 | 0.00 | 85 | 1344.9 |
| 20260503071011 | 28 | 0 | 0.0 | 0.0 | 0.00 | 0.00 | 0.00 | 75 | 1013.3 |
| 20260503070510 | 28 | 0 | 0.0 | 0.0 | 0.00 | 0.00 | 0.00 | 77 | 1013.4 |
| 20260503070506 | 28 | 0 | 0.0 | 0.0 | 0.00 | 0.00 | 0.00 | 85 | 1344.9 |
| 20260503055010 | 28 | 0 | 0.0 | 0.0 | 0.00 | 0.00 | 0.00 | 75 | 1014.1 |
| 20260503055006 | 28 | 0 | 0.0 | 0.0 | 0.00 | 0.00 | 0.00 | 84 | 1346.0 |
| 20260503054511 | 28 | 0 | 0.0 | 0.0 | 0.00 | 0.00 | 0.00 | 75 | 1014.1 |
| 20260503054506 | 28 | 0 | 0.0 | 0.0 | 0.00 | 0.00 | 0.00 | 84 | 1345.9 |
| 20260503054010 | 28 | 0 | 0.0 | 0.0 | 0.00 | 0.00 | 0.00 | 75 | 1014.2 |
| 20260503054006 | 28 | 0 | 0.0 | 0.0 | 0.00 | 0.00 | 0.00 | 83 | 1346.0 |
| 20260503053510 | 28 | 0 | 0.0 | 0.0 | 0.00 | 0.00 | 0.00 | 74 | 1014.1 |
| 20260503053506 | 28 | 0 | 0.0 | 0.0 | 0.00 | 0.00 | 0.00 | 83 | 1346.0 |
| 20260503053010 | 28 | 0 | 0.0 | 0.0 | 0.00 | 0.00 | 0.00 | 74 | 1014.3 |
| 20260503053006 | 28 | 0 | 0.0 | 0.0 | 0.00 | 0.00 | 0.00 | 83 | 1346.2 |
| 20260503052506 | 29 | 0 | 0.0 | 0.0 | 0.00 | 0.00 | 0.00 | 83 | 1346.3 |
| 20260503052010 | 29 | 0 | 0.0 | 0.0 | 0.00 | 0.00 | 0.00 | 74 | 1014.4 |
| 20260503052006 | 29 | 0 | 0.0 | 0.0 | 0.00 | 0.00 | 0.00 | 83 | 1346.4 |
| 20260503051510 | 29 | 0 | 0.0 | 0.0 | 0.00 | 0.00 | 0.00 | 74 | 1014.4 |
| 20260503051505 | 29 | 0 | 0.0 | 0.0 | 0.00 | 0.00 | 0.00 | 83 | 1346.4 |
| 20260503051006 | 29 | 0 | 0.0 | 0.0 | 0.00 | 0.00 | 0.00 | 83 | 1346.4 |
| 20260503050510 | 29 | 0 | 0.0 | 0.0 | 0.00 | 0.00 | 0.00 | 74 | 1014.5 |
| 20260503050506 | 29 | 0 | 0.0 | 0.0 | 0.00 | 0.00 | 0.00 | 83 | 1346.5 |
| 20260503050010 | 29 | 0 | 0.0 | 0.0 | 0.00 | 0.00 | 0.00 | 73 | 1014.5 |
| 20260503050006 | 29 | 0 | 0.0 | 0.0 | 0.00 | 0.00 | 0.00 | 82 | 1346.5 |
| 20260503045510 | 29 | 0 | 0.0 | 0.0 | 0.00 | 0.00 | 0.00 | 73 | 1014.5 |
| 20260503045506 | 29 | 0 | 0.0 | 0.0 | 0.00 | 0.00 | 0.00 | 82 | 1346.5 |
| 20260503045010 | 29 | 0 | 0.0 | 0.0 | 0.00 | 0.00 | 0.00 | 73 | 1014.5 |
| 20260503045006 | 29 | 0 | 0.0 | 0.0 | 0.00 | 0.00 | 0.00 | 82 | 1346.6 |
| 20260503044506 | 29 | 0 | 0.0 | 0.0 | 0.00 | 0.00 | 0.00 | 81 | 1346.7 |
| 20260503044010 | 29 | 0 | 0.0 | 0.0 | 0.00 | 0.00 | 0.00 | 71 | 1014.5 |
| 20260503044006 | 29 | 0 | 0.0 | 0.0 | 0.00 | 0.00 | 0.00 | 81 | 1346.7 |
| 20260503043510 | 29 | 0 | 0.0 | 0.0 | 0.00 | 0.00 | 0.00 | 71 | 1014.6 |
| 20260503043505 | 30 | 0 | 0.0 | 0.0 | 0.00 | 0.00 | 0.00 | 81 | 1346.8 |
| 20260503043027 | 30 | 0 | 0.0 | 0.0 | 0.00 | 0.00 | 0.00 | 81 | 1346.7 |
| 20260503043010 | 29 | 0 | 0.0 | 0.0 | 0.00 | 0.00 | 0.00 | 71 | 1014.6 |
| 20260503042509 | 30 | 0 | 0.0 | 0.0 | 0.00 | 0.00 | 0.00 | 70 | 1014.6 |
| 20260503042506 | 30 | 0 | 0.0 | 0.0 | 0.00 | 0.00 | 0.00 | 80 | 1346.8 |
| 20260503042010 | 30 | 0 | 0.0 | 0.0 | 0.00 | 0.00 | 0.00 | 70 | 1014.7 |
| 20260503042006 | 30 | 0 | 0.0 | 0.0 | 0.00 | 0.00 | 0.00 | 80 | 1346.8 |
| 20260503041510 | 30 | 0 | 0.0 | 0.0 | 0.00 | 0.00 | 0.00 | 70 | 1014.7 |
| 20260503041505 | 30 | 0 | 0.0 | 0.0 | 0.00 | 0.00 | 0.00 | 80 | 1346.9 |
| 20260503041010 | 30 | 0 | 0.0 | 0.0 | 0.00 | 0.00 | 0.00 | 70 | 1014.8 |
| 20260503041006 | 30 | 0 | 0.0 | 0.0 | 0.00 | 0.00 | 0.00 | 79 | 1346.9 |
| 20260503040506 | 30 | 0 | 0.0 | 0.0 | 0.00 | 0.00 | 0.00 | 79 | 1346.9 |
| 20260503040012 | 30 | 0 | 0.0 | 0.0 | 0.00 | 0.00 | 0.00 | 69 | 1014.8 |
| 20260503040007 | 30 | 0 | 0.0 | 0.0 | 0.00 | 0.00 | 0.00 | 79 | 1347.1 |
| 20260503035509 | 30 | 0 | 0.0 | 0.0 | 0.00 | 0.00 | 0.00 | 69 | 1014.8 |
| 20260503035506 | 30 | 0 | 0.0 | 0.0 | 0.00 | 0.00 | 0.00 | 79 | 1347.2 |
| 20260503035027 | 31 | 0 | 0.0 | 0.0 | 0.00 | 0.00 | 0.00 | 78 | 1347.1 |
| 20260503035010 | 31 | 0 | 0.0 | 0.0 | 0.00 | 0.00 | 0.00 | 67 | 1014.8 |
| 20260503034510 | 31 | 0 | 0.0 | 0.0 | 0.00 | 0.00 | 0.00 | 67 | 1014.9 |
| 20260503034506 | 31 | 0 | 0.0 | 0.0 | 0.00 | 0.00 | 0.00 | 78 | 1347.1 |
| 20260503034010 | 31 | 0 | 0.0 | 0.0 | 0.00 | 0.00 | 0.00 | 66 | 1014.8 |
| 20260503034006 | 31 | 0 | 0.0 | 0.0 | 0.00 | 0.00 | 0.00 | 77 | 1347.1 |
| 20260503033506 | 31 | 0 | 0.0 | 0.0 | 0.00 | 0.00 | 0.00 | 77 | 1347.2 |
| 20260503033010 | 31 | 0 | 0.0 | 0.0 | 0.00 | 0.00 | 0.00 | 66 | 1014.9 |
| 20260503033006 | 32 | 0 | 0.0 | 0.0 | 0.00 | 0.00 | 0.00 | 77 | 1347.3 |
| 20260503032510 | 32 | 0 | 0.0 | 0.0 | 0.00 | 0.00 | 0.00 | 65 | 1014.9 |
| 20260503032506 | 32 | 0 | 0.0 | 0.0 | 0.00 | 0.00 | 0.00 | 75 | 1347.3 |
| 20260503032010 | 32 | 0 | 0.0 | 0.0 | 0.00 | 0.00 | 0.00 | 65 | 1014.9 |
| 20260503032006 | 32 | 0 | 0.0 | 0.0 | 0.00 | 0.00 | 0.00 | 75 | 1347.3 |
| 20260503031510 | 32 | 0 | 0.0 | 0.0 | 0.00 | 0.00 | 0.00 | 65 | 1014.9 |
| 20260503031506 | 32 | 0 | 0.0 | 0.0 | 0.00 | 0.00 | 0.00 | 75 | 1347.4 |
| 20260503031010 | 32 | 0 | 0.0 | 0.0 | 0.00 | 0.00 | 0.00 | 63 | 1015.0 |
| 20260503031005 | 32 | 0 | 0.0 | 0.0 | 0.00 | 0.00 | 0.00 | 74 | 1347.5 |
| 20260503030506 | 32 | 0 | 0.0 | 0.0 | 0.00 | 0.00 | 0.00 | 74 | 1347.4 |
| 20260503030010 | 33 | 0 | 0.0 | 0.0 | 0.00 | 0.00 | 0.00 | 62 | 1015.0 |
| 20260503030006 | 33 | 0 | 0.0 | 0.0 | 0.00 | 0.00 | 0.00 | 73 | 1347.5 |
| 20260503025510 | 33 | 0 | 0.0 | 0.0 | 0.00 | 0.00 | 0.00 | 61 | 1015.0 |
| 20260503025506 | 33 | 0 | 0.0 | 0.0 | 0.00 | 0.00 | 0.00 | 72 | 1347.4 |
| 20260503025010 | 33 | 0 | 0.0 | 0.0 | 0.00 | 0.00 | 0.00 | 61 | 1015.1 |
| 20260503025005 | 33 | 0 | 0.0 | 0.0 | 0.00 | 0.00 | 0.00 | 72 | 1347.5 |
| 20260503024509 | 33 | 0 | 0.0 | 0.0 | 0.00 | 0.00 | 0.00 | 59 | 1015.1 |
| 20260503024505 | 33 | 0 | 0.0 | 0.0 | 0.00 | 0.00 | 0.00 | 71 | 1347.7 |
| 20260503024027 | 33 | 0 | 0.0 | 0.0 | 0.00 | 0.00 | 0.00 | 71 | 1347.7 |
| 20260503024010 | 33 | 0 | 0.0 | 0.0 | 0.00 | 0.00 | 0.00 | 59 | 1015.2 |
| 20260503023510 | 34 | 0 | 0.0 | 0.0 | 0.00 | 0.00 | 0.00 | 58 | 1015.3 |
| 20260503023505 | 34 | 0 | 0.0 | 0.0 | 0.00 | 0.00 | 0.00 | 70 | 1347.7 |
| 20260503023005 | 34 | 0 | 0.0 | 0.0 | 0.00 | 0.00 | 0.00 | 70 | 1347.9 |
| 20260503022509 | 34 | 0 | 0.0 | 0.0 | 0.00 | 0.00 | 0.00 | 58 | 1015.3 |
| 20260503022505 | 34 | 0 | 0.0 | 0.0 | 0.00 | 0.00 | 0.00 | 70 | 1348.0 |
| 20260503022027 | 34 | 0 | 0.0 | 0.0 | 0.00 | 0.00 | 0.00 | 70 | 1348.0 |
| 20260503022010 | 34 | 0 | 0.0 | 0.0 | 0.00 | 0.00 | 0.00 | 58 | 1015.3 |
| 20260503021511 | 35 | 0 | 0.0 | 0.0 | 0.00 | 0.00 | 0.00 | 58 | 1015.2 |
| 20260503021506 | 35 | 0 | 0.0 | 0.0 | 0.00 | 0.00 | 0.00 | 70 | 1347.9 |
| 20260503021027 | 35 | 0 | 0.0 | 0.0 | 0.00 | 0.00 | 0.00 | 70 | 1347.9 |
| 20260503021010 | 35 | 0 | 0.0 | 0.0 | 0.00 | 0.00 | 0.00 | 58 | 1015.3 |
| 20260503020509 | 35 | 0 | 0.0 | 0.0 | 0.00 | 0.00 | 0.00 | 58 | 1015.3 |
| 20260503020505 | 36 | 0 | 0.0 | 0.0 | 0.00 | 0.00 | 0.00 | 70 | 1347.9 |
| 20260503020010 | 36 | 0 | 0.0 | 0.0 | 0.00 | 0.00 | 0.00 | 57 | 1015.3 |
| 20260503020006 | 36 | 0 | 0.0 | 0.0 | 0.00 | 0.00 | 0.00 | 69 | 1347.9 |
| 20260503015510 | 36 | 0 | 0.0 | 0.0 | 0.00 | 0.00 | 0.00 | 57 | 1015.3 |
| 20260503015506 | 36 | 0 | 0.0 | 0.0 | 0.00 | 0.00 | 0.00 | 69 | 1348.0 |
| 20260503015010 | 36 | 0 | 0.0 | 0.0 | 0.00 | 0.00 | 0.00 | 55 | 1015.3 |
| 20260503015006 | 36 | 0 | 0.0 | 0.0 | 0.00 | 0.00 | 0.00 | 68 | 1348.0 |
| 20260503014509 | 37 | 0 | 0.0 | 0.0 | 0.00 | 0.00 | 0.00 | 55 | 1015.3 |
| 20260503014506 | 37 | 0 | 0.0 | 0.0 | 0.00 | 0.00 | 0.00 | 68 | 1348.0 |
| 20260503014027 | 37 | 0 | 0.0 | 0.0 | 0.00 | 0.00 | 0.00 | 68 | 1347.9 |
| 20260503014010 | 37 | 0 | 0.0 | 0.0 | 0.00 | 0.00 | 0.00 | 55 | 1015.3 |
| 20260503013510 | 38 | 0 | 0.0 | 0.0 | 0.00 | 0.00 | 0.00 | 54 | 1015.2 |
| 20260503013506 | 38 | 0 | 0.0 | 0.0 | 0.00 | 0.00 | 0.00 | 67 | 1347.9 |
| 20260503013010 | 38 | 0 | 0.0 | 0.0 | 0.00 | 0.00 | 0.00 | 53 | 1015.2 |
| 20260503013005 | 38 | 0 | 0.0 | 0.0 | 0.00 | 0.00 | 0.00 | 66 | 1347.8 |
| 20260503012510 | 38 | 0 | 0.0 | 0.0 | 0.00 | 0.00 | 0.00 | 53 | 1015.2 |
| 20260503012505 | 38 | 0 | 0.0 | 0.0 | 0.00 | 0.00 | 0.00 | 64 | 1347.9 |
| 20260503012011 | 39 | 0 | 0.0 | 0.0 | 0.00 | 0.00 | 0.00 | 51 | 1015.2 |
| 20260503012005 | 39 | 0 | 0.0 | 0.0 | 0.00 | 0.00 | 0.00 | 64 | 1347.7 |
| 20260503011510 | 39 | 0 | 0.0 | 0.0 | 0.00 | 0.00 | 0.00 | 50 | 1015.2 |
| 20260503011506 | 39 | 0 | 0.0 | 0.0 | 0.00 | 0.00 | 0.00 | 63 | 1347.7 |
| 20260503011005 | 40 | 0 | 0.0 | 0.0 | 0.00 | 0.00 | 0.00 | 62 | 1347.8 |
| 20260503010510 | 40 | 0 | 0.0 | 0.0 | 0.00 | 0.00 | 0.00 | 49 | 1015.3 |
| 20260503010505 | 40 | 0 | 0.0 | 0.0 | 0.00 | 0.00 | 0.00 | 62 | 1347.7 |
| 20260503010010 | 41 | 0 | 0.0 | 0.0 | 0.00 | 0.00 | 0.00 | 47 | 1015.3 |
| 20260503010006 | 41 | 0 | 0.0 | 0.0 | 0.00 | 0.00 | 0.00 | 61 | 1347.7 |
| 20260503005509 | 41 | 0 | 0.0 | 0.0 | 0.00 | 0.00 | 0.00 | 46 | 1015.2 |
| 20260503005505 | 41 | 0 | 0.0 | 0.0 | 0.00 | 0.00 | 0.00 | 60 | 1347.7 |
| 20260503005005 | 41 | 0 | 0.0 | 0.0 | 0.00 | 0.00 | 0.00 | 59 | 1347.8 |
| 20260503004527 | 42 | 0 | 0.0 | 0.0 | 0.00 | 0.00 | 0.00 | 59 | 1347.8 |
| 20260503004510 | 42 | 0 | 0.0 | 0.0 | 0.00 | 0.00 | 0.00 | 45 | 1015.1 |
| 20260503004027 | 42 | 0 | 0.0 | 0.0 | 0.00 | 0.00 | 0.00 | 58 | 1347.7 |
| 20260503004010 | 42 | 0 | 0.0 | 0.0 | 0.00 | 0.00 | 0.00 | 43 | 1015.0 |
| 20260503003527 | 42 | 9 | 0.0 | 0.9 | 0.00 | 0.00 | 0.00 | 58 | 1347.6 |
| 20260503003010 | 43 | 0 | 0.0 | 0.0 | 0.00 | 0.00 | 0.00 | 42 | 1015.0 |
| 20260503003005 | 43 | 9 | 0.0 | 0.9 | 0.00 | 0.00 | 0.00 | 57 | 1347.6 |
| 20260503002505 | 43 | 9 | 0.0 | 0.0 | 0.00 | 0.00 | 0.00 | 57 | 1347.6 |
| 20260503002027 | 43 | 9 | 0.0 | 0.9 | 0.00 | 0.00 | 0.00 | 57 | 1347.5 |
| 20260503002010 | 43 | 0 | 0.0 | 2.6 | 0.00 | 0.00 | 0.00 | 42 | 1015.0 |
| 20260503001510 | 43 | 0 | 0.0 | 3.5 | 0.00 | 0.00 | 0.00 | 41 | 1015.0 |
| 20260503001505 | 43 | 9 | 0.9 | 2.6 | 0.00 | 0.00 | 0.00 | 56 | 1347.5 |
| 20260503001010 | 44 | 10 | 0.9 | 3.5 | 0.00 | 0.00 | 0.00 | 41 | 1015.0 |
| 20260503001005 | 44 | 9 | 0.9 | 3.5 | 0.00 | 0.00 | 0.00 | 56 | 1347.4 |
| 20260503000511 | 44 | 10 | 0.9 | 3.5 | 0.00 | 0.00 | 0.00 | 41 | 1014.9 |
| 20260503000505 | 44 | 9 | 0.9 | 3.5 | 0.00 | 0.00 | 0.00 | 56 | 1347.4 |
| 20260503000027 | 44 | 9 | 0.9 | 3.5 | 0.00 | 0.00 | 0.00 | 55 | 1347.4 |
| 20260503000010 | 44 | 10 | 0.9 | 3.5 | 0.00 | 0.00 | 0.00 | 39 | 1015.0 |
| 20260502235510 | 44 | 10 | 0.9 | 3.5 | 0.00 | 0.00 | 0.00 | 39 | 1014.9 |
| 20260502235506 | 44 | 9 | 0.9 | 3.5 | 0.00 | 0.00 | 0.00 | 55 | 1347.4 |
| 20260502235009 | 44 | 6 | 0.9 | 3.5 | 0.00 | 0.00 | 0.00 | 38 | 1014.9 |
| 20260502235005 | 44 | 5 | 1.7 | 4.3 | 0.00 | 0.00 | 0.00 | 53 | 1347.3 |
| 20260502234511 | 44 | 347 | 2.6 | 7.0 | 0.00 | 0.00 | 0.00 | 38 | 1014.9 |
| 20260502234506 | 44 | 345 | 2.6 | 4.3 | 0.00 | 0.00 | 0.00 | 53 | 1347.4 |
| 20260502234010 | 44 | 344 | 2.6 | 7.0 | 0.00 | 0.00 | 0.00 | 37 | 1015.0 |
| 20260502234005 | 44 | 344 | 2.6 | 9.6 | 0.00 | 0.00 | 0.00 | 52 | 1347.5 |
| 20260502233510 | 45 | 350 | 2.6 | 6.1 | 0.00 | 0.00 | 0.00 | 35 | 1015.0 |
| 20260502233506 | 45 | 351 | 2.6 | 7.0 | 0.00 | 0.00 | 0.00 | 51 | 1347.5 |
| 20260502233010 | 45 | 349 | 2.6 | 7.8 | 0.00 | 0.00 | 0.00 | 35 | 1015.0 |
| 20260502233005 | 45 | 350 | 2.6 | 4.3 | 0.00 | 0.00 | 0.00 | 51 | 1347.5 |
| 20260502232505 | 45 | 2 | 2.6 | 9.6 | 0.00 | 0.00 | 0.00 | 50 | 1347.6 |
| 20260502232005 | 45 | 15 | 3.5 | 4.3 | 0.00 | 0.00 | 0.00 | 50 | 1347.7 |
| 20260502231526 | 46 | 5 | 4.3 | 9.6 | 0.00 | 0.00 | 0.00 | 49 | 1347.7 |
| 20260502231510 | 46 | 4 | 4.3 | 10.4 | 0.00 | 0.00 | 0.00 | 33 | 1015.0 |
| 20260502231027 | 46 | 360 | 4.3 | 10.4 | 0.00 | 0.00 | 0.00 | 50 | 1347.6 |
| 20260502231010 | 46 | 356 | 4.3 | 10.4 | 0.00 | 0.00 | 0.00 | 34 | 1015.1 |
| 20260502230509 | 46 | 359 | 3.5 | 11.3 | 0.00 | 0.00 | 0.00 | 33 | 1015.1 |
| 20260502230505 | 46 | 1 | 3.5 | 9.6 | 0.00 | 0.00 | 0.00 | 49 | 1347.7 |
| 20260502230027 | 47 | 358 | 2.6 | 11.3 | 0.00 | 0.00 | 0.00 | 49 | 1347.6 |
| 20260502230010 | 47 | 355 | 3.5 | 11.3 | 0.00 | 0.00 | 0.00 | 33 | 1015.1 |
| 20260502225510 | 47 | 354 | 3.5 | 10.4 | 0.00 | 0.00 | 0.00 | 31 | 1015.1 |
| 20260502225506 | 47 | 356 | 3.5 | 7.8 | 0.00 | 0.00 | 0.00 | 48 | 1347.7 |
| 20260502225005 | 47 | 350 | 4.3 | 10.4 | 0.00 | 0.00 | 0.00 | 48 | 1347.6 |
| 20260502224509 | 47 | 356 | 4.3 | 13.0 | 0.00 | 0.00 | 0.00 | 31 | 1015.1 |
| 20260502224505 | 47 | 360 | 3.5 | 13.0 | 0.00 | 0.00 | 0.00 | 48 | 1347.6 |
| 20260502224010 | 47 | 359 | 4.3 | 11.3 | 0.00 | 0.00 | 0.00 | 31 | 1015.1 |
| 20260502224005 | 48 | 360 | 4.3 | 11.3 | 0.00 | 0.00 | 0.00 | 48 | 1347.5 |
| 20260502223510 | 47 | 355 | 4.3 | 11.3 | 0.00 | 0.00 | 0.00 | 30 | 1015.1 |
| 20260502223505 | 48 | 355 | 4.3 | 13.0 | 0.00 | 0.00 | 0.00 | 47 | 1347.6 |
| 20260502223010 | 48 | 8 | 3.5 | 10.4 | 0.00 | 0.00 | 0.00 | 31 | 1015.1 |
| 20260502223005 | 48 | 7 | 4.3 | 10.4 | 0.00 | 0.00 | 0.00 | 48 | 1347.6 |
| 20260502222505 | 48 | 4 | 4.3 | 10.4 | 0.00 | 0.00 | 0.00 | 47 | 1347.7 |
| 20260502222010 | 48 | 354 | 4.3 | 9.6 | 0.00 | 0.00 | 0.00 | 33 | 1015.1 |
| 20260502222005 | 48 | 356 | 4.3 | 10.4 | 0.00 | 0.00 | 0.00 | 48 | 1347.7 |
| 20260502221510 | 47 | 344 | 4.3 | 10.4 | 0.00 | 0.00 | 0.00 | 31 | 1015.2 |
| 20260502221505 | 48 | 345 | 4.3 | 9.6 | 0.00 | 0.00 | 0.00 | 48 | 1347.8 |
| 20260502221010 | 47 | 336 | 3.5 | 10.4 | 0.00 | 0.00 | 0.00 | 33 | 1015.2 |
| 20260502221005 | 47 | 337 | 4.3 | 11.3 | 0.00 | 0.00 | 0.00 | 48 | 1347.7 |
| 20260502220509 | 47 | 355 | 3.5 | 11.3 | 0.00 | 0.00 | 0.00 | 33 | 1015.1 |
| 20260502220505 | 47 | 355 | 4.3 | 9.6 | 0.00 | 0.00 | 0.00 | 49 | 1347.6 |
| 20260502220010 | 47 | 355 | 4.3 | 11.3 | 0.00 | 0.00 | 0.00 | 31 | 1015.2 |
| 20260502220005 | 47 | 356 | 4.3 | 11.3 | 0.00 | 0.00 | 0.00 | 47 | 1347.7 |
| 20260502215510 | 47 | 344 | 4.3 | 13.0 | 0.00 | 0.00 | 0.00 | 30 | 1015.1 |
| 20260502215505 | 48 | 341 | 5.2 | 10.4 | 0.00 | 0.00 | 0.00 | 47 | 1347.6 |
| 20260502215005 | 48 | 348 | 5.2 | 13.0 | 0.00 | 0.00 | 0.00 | 48 | 1347.5 |
| 20260502214509 | 47 | 349 | 4.3 | 11.3 | 0.00 | 0.00 | 0.00 | 33 | 1015.1 |
| 20260502214505 | 47 | 353 | 4.3 | 13.0 | 0.00 | 0.00 | 0.00 | 49 | 1347.6 |
| 20260502214026 | 47 | 347 | 5.2 | 13.0 | 0.00 | 0.00 | 0.00 | 48 | 1347.6 |
| 20260502214010 | 47 | 340 | 4.3 | 10.4 | 0.00 | 0.00 | 0.00 | 31 | 1015.2 |
| 20260502213510 | 47 | 338 | 4.3 | 10.4 | 0.00 | 0.00 | 0.00 | 33 | 1015.1 |
| 20260502213506 | 47 | 338 | 4.3 | 10.4 | 0.00 | 0.00 | 0.00 | 48 | 1347.6 |
| 20260502213010 | 47 | 338 | 3.5 | 10.4 | 0.00 | 0.00 | 0.00 | 31 | 1015.2 |
| 20260502213005 | 47 | 337 | 3.5 | 11.3 | 0.00 | 0.00 | 0.00 | 48 | 1347.6 |
| 20260502212509 | 47 | 347 | 3.5 | 10.4 | 0.00 | 0.00 | 0.00 | 31 | 1015.2 |
| 20260502212505 | 47 | 350 | 3.5 | 10.4 | 0.00 | 0.00 | 0.00 | 48 | 1347.6 |
| 20260502212027 | 47 | 5 | 3.5 | 10.4 | 0.00 | 0.00 | 0.00 | 47 | 1347.7 |
| 20260502212010 | 47 | 6 | 4.3 | 10.4 | 0.00 | 0.00 | 0.00 | 30 | 1015.2 |
| 20260502211510 | 47 | 359 | 4.3 | 14.8 | 0.00 | 0.00 | 0.00 | 30 | 1015.1 |
| 20260502211505 | 47 | 356 | 4.3 | 11.3 | 0.00 | 0.00 | 0.00 | 47 | 1347.7 |
| 20260502211009 | 47 | 341 | 4.3 | 14.8 | 0.00 | 0.00 | 0.00 | 29 | 1015.2 |
| 20260502211006 | 47 | 344 | 5.2 | 14.8 | 0.00 | 0.00 | 0.00 | 46 | 1347.6 |
| 20260502210510 | 47 | 334 | 4.3 | 10.4 | 0.00 | 0.00 | 0.00 | 30 | 1015.2 |
| 20260502210505 | 48 | 339 | 4.3 | 10.4 | 0.00 | 0.00 | 0.00 | 47 | 1347.6 |
| 20260502210010 | 47 | 334 | 4.3 | 10.4 | 0.00 | 0.00 | 0.00 | 31 | 1015.1 |
| 20260502210006 | 48 | 334 | 4.3 | 9.6 | 0.00 | 0.00 | 0.00 | 48 | 1347.7 |
| 20260502205505 | 48 | 340 | 5.2 | 13.0 | 0.00 | 0.00 | 0.00 | 50 | 1347.5 |
| 20260502205011 | 47 | 1 | 4.3 | 10.4 | 0.00 | 0.00 | 0.00 | 35 | 1015.2 |
| 20260502205005 | 47 | 359 | 4.3 | 10.4 | 0.00 | 0.00 | 0.00 | 51 | 1347.8 |
| 20260502204510 | 47 | 350 | 4.3 | 10.4 | 0.00 | 0.00 | 0.00 | 33 | 1015.2 |
| 20260502204505 | 47 | 349 | 4.3 | 10.4 | 0.00 | 0.00 | 0.00 | 49 | 1347.8 |
| 20260502204009 | 47 | 349 | 4.3 | 13.0 | 0.00 | 0.00 | 0.00 | 34 | 1015.2 |
| 20260502204005 | 47 | 345 | 4.3 | 13.0 | 0.00 | 0.00 | 0.00 | 50 | 1348.0 |
| 20260502203526 | 47 | 338 | 5.2 | 13.0 | 0.00 | 0.00 | 0.00 | 49 | 1347.9 |
| 20260502203509 | 47 | 337 | 6.1 | 13.0 | 0.00 | 0.00 | 0.00 | 33 | 1015.3 |
| 20260502203010 | 47 | 332 | 4.3 | 13.0 | 0.00 | 0.00 | 0.00 | 31 | 1015.2 |
| 20260502203005 | 48 | 334 | 5.2 | 13.0 | 0.00 | 0.00 | 0.00 | 48 | 1347.8 |
| 20260502202527 | 48 | 346 | 5.2 | 13.0 | 0.00 | 0.00 | 0.00 | 49 | 1347.9 |
| 20260502202510 | 48 | 347 | 4.3 | 13.0 | 0.00 | 0.00 | 0.00 | 33 | 1015.3 |
| 20260502202010 | 47 | 7 | 4.3 | 10.4 | 0.00 | 0.00 | 0.00 | 34 | 1015.3 |
| 20260502202006 | 48 | 5 | 4.3 | 10.4 | 0.00 | 0.00 | 0.00 | 50 | 1347.9 |
| 20260502201509 | 47 | 3 | 3.5 | 7.8 | 0.00 | 0.00 | 0.00 | 35 | 1015.4 |
| 20260502201505 | 47 | 1 | 3.5 | 9.6 | 0.00 | 0.00 | 0.00 | 51 | 1348.0 |
| 20260502201010 | 47 | 338 | 3.5 | 7.8 | 0.00 | 0.00 | 0.00 | 37 | 1015.4 |
| 20260502201005 | 47 | 337 | 4.3 | 9.6 | 0.00 | 0.00 | 0.00 | 52 | 1348.0 |
| 20260502200509 | 47 | 346 | 4.3 | 13.0 | 0.00 | 0.00 | 0.00 | 34 | 1015.5 |
| 20260502200505 | 47 | 347 | 5.2 | 9.6 | 0.00 | 0.00 | 0.00 | 50 | 1348.1 |
| 20260502200009 | 47 | 3 | 6.1 | 13.0 | 0.00 | 0.00 | 0.00 | 33 | 1015.5 |
| 20260502200005 | 48 | 3 | 5.2 | 14.8 | 0.00 | 0.00 | 0.00 | 49 | 1348.2 |
| 20260502195510 | 48 | 5 | 6.1 | 17.4 | 0.00 | 0.00 | 0.00 | 33 | 1015.5 |
| 20260502195505 | 48 | 5 | 5.2 | 10.4 | 0.00 | 0.00 | 0.00 | 49 | 1348.2 |
| 20260502195027 | 48 | 355 | 5.2 | 17.4 | 0.00 | 0.00 | 0.00 | 49 | 1348.2 |
| 20260502195010 | 48 | 352 | 4.3 | 17.4 | 0.00 | 0.00 | 0.00 | 33 | 1015.6 |
| 20260502194509 | 48 | 343 | 4.3 | 13.0 | 0.00 | 0.00 | 0.00 | 31 | 1015.5 |
| 20260502194505 | 48 | 341 | 4.3 | 9.6 | 0.00 | 0.00 | 0.00 | 49 | 1348.2 |